Flag for Norway Weather past 2 weeks in Florø, Norway

Now
48 °F

Clear.


Feels Like: 44 °F
Forecast: 52 / 55 °F
Wind: 9 mph from North

Location: Floro

Current Time: Sep 22, 2014 at 6:47:25 AM

Latest Report: Sep 22, 2014 at 5:50 AM


Visibility: 10 mi

Pressure: 30.15 "Hg

Humidity: 66%

Dew point: 37 °F

Location of FlorøLocation

Historic Weather in Florø — Graph

°F

Florø temperature yesterday

Maximum temperature yesterday: 54 °F (at 11:20 AM)
Minimum temperature yesterday: 48 °F (at 9:50 PM)
Average temperature yesterday: 52 °F

Past Weeks' High & Low Weather Summary

 TemperatureHumidityPressure
High64 °F (Sep 15, 1:50 PM)100% (Sep 7, 11:20 PM)30.48 "Hg (Sep 7, 11:20 PM)
Low48 °F (Sep 10, 5:20 AM)49% (Sep 16, 3:50 PM)29.80 "Hg (Sep 7, 8:20 AM)
Average57 °F81%30.15 "Hg
* Reported Sep 7 8:20 AM — Sep 22 5:50 AM, Florø, Weather by CustomWeather, © 2014

Note: Actual official high and low records may vary slightly from our data, if they occured in-between our weather recording intervals... More about our weather records

Advertising

Florø weather history for previous 24 hours

 ConditionsComfort  
Time TempWeatherWind HumidityBarometerVisibility
5:50 AM
Sep 22
48 °FClear.9 mph66%30.15 "Hg10 mi
11:20 PM
Sep 21
48 °FPassing clouds.16 mph66%30.12 "HgN/A
10:50 PM50 °FPassing clouds.16 mph62%30.12 "HgN/A
10:20 PM48 °FPassing clouds.9 mph71%30.09 "HgN/A
9:50 PM48 °FPassing clouds.12 mph71%30.09 "HgN/A
9:20 PM50 °FPassing clouds.9 mph67%30.09 "HgN/A
8:50 PM50 °FPassing clouds.12 mph62%30.09 "HgN/A
8:20 PM50 °FScattered clouds.14 mph67%30.07 "HgN/A
7:50 PM52 °FScattered showers. Scattered clouds.9 mph62%30.07 "HgN/A
7:20 PM52 °FScattered showers. Scattered clouds.12 mph62%30.07 "HgN/A
6:50 PM52 °FScattered showers. Scattered clouds.16 mph62%30.07 "HgN/A
6:20 PM52 °FScattered showers. Scattered clouds.17 mph62%30.07 "HgN/A
5:50 PM52 °FScattered showers. Scattered clouds.16 mph67%30.07 "HgN/A
5:20 PM52 °FScattered showers. Scattered clouds.21 mph77%30.07 "HgN/A
4:50 PM52 °FScattered showers. Scattered clouds.16 mph67%30.07 "HgN/A
4:20 PM50 °FScattered showers. Scattered clouds.16 mph76%30.07 "HgN/A
3:50 PM54 °FScattered showers. Scattered clouds.22 mph58%30.07 "HgN/A
2:50 PM54 °FScattered showers. Scattered clouds.15 mph63%30.07 "HgN/A
2:20 PM52 °FScattered showers. Scattered clouds.16 mph62%30.07 "HgN/A
1:50 PM52 °FScattered showers. Scattered clouds.21 mph77%30.07 "HgN/A
1:20 PM54 °FScattered showers. Scattered clouds.18 mph58%30.07 "HgN/A
12:50 PM54 °FScattered showers. Broken clouds.15 mph58%30.07 "HgN/A
12:20 PM54 °FScattered showers. Scattered clouds.17 mph58%30.07 "HgN/A
11:50 AM54 °FScattered showers. Scattered clouds.16 mph63%30.04 "HgN/A
11:20 AM54 °FScattered showers. Scattered clouds.17 mph63%30.04 "HgN/A
Weather by CustomWeather, © 2014

See weather overviewHow to use our weather pages